Teesside, United Kingdom

12:39 PM BST on June 23, 2017 (GMT +0100)
Teesside

Weather History for EGNV - November, 2012

Change the Weather History Date:

Wednesday, November 28, 2012

  Actual Average Record
Temperature  
Mean Temperature 39 °F -  
Max Temperature 41 °F 43 °F 59 °F (2000)
Min Temperature 37 °F 33 °F 12 °F (2010)
Degree Days  
Heating Degree Days 26    
Moisture  
Dew Point 33 °F    
Average Humidity 79    
Maximum Humidity 87    
Minimum Humidity 70    
Precipitation  
Precipitation 0.00 in - - ()
Sea Level Pressure  
Sea Level Pressure 30.02 in    
Wind  
Wind Speed 13 mph ()    
Max Wind Speed 17 mph    
Max Gust Speed -    
Visibility 6.1 miles    
Events Rain    
Averages and records for this station are not official NWS values.
T = Trace of Precipitation, MM = Missing Value Source: Averaged Metar Reports

Daily Weather History Graph

Daily Weather History Graph

Search for Another Location

Airport or City:

Trip Planner

Search our weather history database for the weather conditions in past years. The results will help you decide how hot, cold, wet, or windy it might be!

Date:

Astronomy

Nov. 28, 2012 Rise Set
Actual Time 7:59 AM GMT 3:47 PM GMT
Civil Twilight 7:17 AM GMT 4:29 PM GMT
Nautical Twilight 6:31 AM GMT 5:15 PM GMT
Astronomical Twilight 5:48 AM GMT 5:58 PM GMT
Moon 3:50 PM GMT (11/28) 7:44 AM GMT (11/28)
Length of Visible Light 9h 12m
Length of Day
7h 47m
Full, 100% of the Moon is Illuminated
Nov 28
Full
Nov 28
Full
Dec 6
Last Quarter
Dec 13
New
Dec 20
First Quarter

Hourly Weather History & Observations

Time (GMT) Temp. Windchill Dew Point Humidity Pressure Visibility Wind Dir Wind Speed Gust Speed Precip Events Conditions
5:50 AM 41.0 °F 32.5 °F 37.4 °F 87% 29.98 in 6.2 mi NNW 17.3 mph - N/A   Scattered Clouds
6:20 AM 41.0 °F 32.5 °F 35.6 °F 81% 29.98 in 6.2 mi NNW 17.3 mph - N/A   Scattered Clouds
6:50 AM 41.0 °F 33.1 °F 35.6 °F 81% 30.01 in 6.2 mi NNW 15.0 mph - N/A   Scattered Clouds
7:20 AM 39.2 °F 30.8 °F 35.6 °F 87% 30.01 in 6.2 mi NNW 15.0 mph - N/A   Scattered Clouds
7:50 AM 39.2 °F 30.5 °F 35.6 °F 87% 30.01 in 6.2 mi NNW 16.1 mph - N/A   Scattered Clouds
8:20 AM 39.2 °F 30.2 °F 35.6 °F 87% 30.01 in 5.0 mi NNW 17.3 mph - N/A   Scattered Clouds
8:50 AM 39.2 °F 31.2 °F 33.8 °F 81% 30.04 in 5.6 mi NW 13.8 mph - N/A   Scattered Clouds
9:20 AM 39.2 °F 31.2 °F 33.8 °F 81% 30.04 in 6.2 mi NW 13.8 mph - N/A   Scattered Clouds
9:50 AM 39.2 °F 31.6 °F 35.6 °F 87% 30.04 in 6.2 mi NNW 12.7 mph - N/A   Scattered Clouds
10:20 AM 39.2 °F 31.2 °F 33.8 °F 81% 30.04 in 6.2 mi NNW 13.8 mph - N/A   Scattered Clouds
10:50 AM 41.0 °F 34.3 °F 33.8 °F 76% 30.04 in 6.2 mi NNW 11.5 mph - N/A   Partly Cloudy
11:20 AM 41.0 °F 33.1 °F 33.8 °F 76% 30.04 in 6.2 mi NNW 15.0 mph - N/A   Scattered Clouds
11:50 AM 41.0 °F 34.7 °F 33.8 °F 76% 30.04 in 6.2 mi NNW 10.4 mph - N/A   Mostly Cloudy
12:20 PM 41.0 °F 33.5 °F 33.8 °F 76% 30.04 in 6.2 mi NNW 13.8 mph - N/A   Mostly Cloudy
12:50 PM 41.0 °F 33.9 °F 33.8 °F 76% 30.04 in 6.2 mi NW 12.7 mph - N/A   Mostly Cloudy
1:20 PM 41.0 °F 32.8 °F 33.8 °F 76% 30.01 in 6.2 mi NNW 16.1 mph - N/A   Scattered Clouds
1:50 PM 41.0 °F 32.8 °F 33.8 °F 76% 30.04 in 6.2 mi NW 16.1 mph - N/A   Scattered Clouds
2:20 PM 41.0 °F 33.5 °F 33.8 °F 76% 30.01 in 6.2 mi NNW 13.8 mph - N/A   Mostly Cloudy
2:50 PM 41.0 °F 33.9 °F 33.8 °F 76% 30.04 in 6.2 mi NW 12.7 mph - N/A   Scattered Clouds
3:20 PM 41.0 °F 33.1 °F 32.0 °F 70% 30.04 in 6.2 mi NW 15.0 mph - N/A   Scattered Clouds
3:50 PM 39.2 °F 32.0 °F 32.0 °F 75% 30.04 in 6.2 mi NW 11.5 mph - N/A   Scattered Clouds
4:20 PM 37.4 °F 30.3 °F 30.2 °F 75% 30.04 in 6.2 mi WNW 10.4 mph - N/A   Partly Cloudy
4:50 PM 37.4 °F 30.8 °F 30.2 °F 75% 30.04 in 6.2 mi WNW 9.2 mph - N/A   Partly Cloudy
5:20 PM 37.4 °F 30.3 °F 30.2 °F 75% 30.04 in 6.2 mi NW 10.4 mph - N/A   Partly Cloudy
5:50 PM 37.4 °F 30.3 °F 30.2 °F 75% 30.04 in 6.2 mi WNW 10.4 mph - N/A   Partly Cloudy
6:20 PM 37.4 °F 30.8 °F 30.2 °F 75% 30.01 in 6.2 mi WNW 9.2 mph - N/A   Partly Cloudy
6:50 PM 37.4 °F 30.3 °F 30.2 °F 75% 30.01 in 6.2 mi NW 10.4 mph - N/A   Partly Cloudy
7:20 PM 37.4 °F 30.3 °F 30.2 °F 75% 30.01 in 6.2 mi NW 10.4 mph - N/A   Partly Cloudy
7:50 PM 37.4 °F 30.8 °F 32.0 °F 81% 30.01 in 6.2 mi NNW 9.2 mph - N/A   Scattered Clouds
8:20 PM 37.4 °F 30.3 °F 32.0 °F 81% 30.01 in 6.2 mi NW 10.4 mph - N/A   Scattered Clouds
8:50 PM 37.4 °F 29.8 °F 32.0 °F 81% 30.01 in 6.2 mi NNW 11.5 mph - N/A Rain Light Rain Showers
9:20 PM 37.4 °F 29.3 °F 32.0 °F 81% 30.01 in 6.2 mi NNW 12.7 mph - N/A   Scattered Clouds
9:50 PM 37.4 °F 28.9 °F 32.0 °F 81% 30.01 in 6.2 mi NW 13.8 mph - N/A   Partly Cloudy